Weather History for KP68 - April, 2014

Change the Weather History Date:

Saturday, April 12, 2014

  Actual Average Record
Temperature  
Mean Temperature 54 °F 42 °F  
Max Temperature 68 °F 58 °F 76 °F (1988)
Min Temperature 39 °F 27 °F 4 °F (1970)
Degree Days  
Heating Degree Days 11 23  
Month to date heating degree days 249 287  
Since 1 July heating degree days 5831 6443  
Cooling Degree Days 0 0  
Month to date cooling degree days 0 0  
Year to date cooling degree days 0 0  
Growing Degree Days 4 (Base 50)    
Moisture  
Dew Point 25 °F    
Average Humidity 37    
Maximum Humidity 55    
Minimum Humidity 18    
Precipitation  
Precipitation 0.00 in 0.03 in 0.66 in (1983)
Month to date precipitation 0.13 0.36  
Year to date precipitation 2.47 2.89  
Sea Level Pressure  
Sea Level Pressure 29.68 in    
Wind  
Wind Speed 9 mph (WNW)    
Max Wind Speed 35 mph    
Max Gust Speed 51 mph    
T = Trace of Precipitation, MM = Missing Value Source: NWS Daily Summary

Daily Weather History Graph

Daily Weather History Graph

Search for Another Location

Airport or City:

Trip Planner

Search our weather history database for the weather conditions in past years. The results will help you decide how hot, cold, wet, or windy it might be!

Date:

Astronomy

Apr. 12, 2014 Rise Set
Actual Time 6:11 AM PDT 7:19 PM PDT
Civil Twilight 5:43 AM PDT 7:46 PM PDT
Nautical Twilight 5:10 AM PDT 8:19 PM PDT
Astronomical Twilight 4:35 AM PDT 8:54 PM PDT
Moon 5:02 PM PDT (4/12) 4:39 AM PDT (4/12)
Length of Visible Light 14h 03m
Length of Day
13h 08m
Waxing Gibbous, 93% of the Moon is Illuminated
Apr 12
Waxing Gibbous
Apr 15
Full
Apr 22
Last Quarter
Apr 28
New
May 6
First Quarter

Hourly Weather History & Observations

Time (PDT) Temp. Windchill Dew Point Humidity Pressure Visibility Wind Dir Wind Speed Gust Speed Precip Events Conditions
12:53 AM 43.0 °F 39.5 °F 23.0 °F 45% 29.74 in - SSW 5.8 mph - N/A   Unknown
1:53 AM 43.0 °F - 25.0 °F 49% 29.72 in - Calm Calm - N/A   Unknown
2:53 AM 43.0 °F 40.3 °F 25.0 °F 49% 29.70 in - South 4.6 mph - N/A   Unknown
3:53 AM 41.0 °F - 26.1 °F 55% 29.70 in - North - - N/A   Unknown
4:53 AM 46.0 °F 43.1 °F 25.0 °F 44% 29.68 in - South 5.8 mph - N/A   Unknown
5:53 AM 44.1 °F - 27.0 °F 51% 29.70 in - Calm Calm - N/A   Unknown
6:53 AM 42.1 °F 38.4 °F 25.0 °F 51% 29.73 in - NW 5.8 mph - N/A   Unknown
7:53 AM 46.9 °F - 27.0 °F 46% 29.74 in - Calm Calm - N/A   Unknown
8:53 AM 55.0 °F - 21.9 °F 28% 29.72 in - Calm Calm - N/A   Unknown
9:53 AM 61.0 °F - 26.1 °F 26% 29.73 in - North 9.2 mph - N/A   Unknown
10:53 AM 64.0 °F - 27.0 °F 25% 29.71 in - North 11.5 mph - N/A   Unknown
11:53 AM 64.9 °F - 26.1 °F 23% 29.70 in - Calm Calm - N/A   Unknown
12:53 PM 63.0 °F - 28.9 °F 28% 29.71 in - North 11.5 mph 21.9 mph N/A   Unknown
1:53 PM 64.9 °F - 27.0 °F 24% 29.69 in - NW 18.4 mph 25.3 mph N/A   Unknown
2:53 PM 64.9 °F - 26.1 °F 23% 29.66 in - West 16.1 mph 23.0 mph N/A   Unknown
3:53 PM 66.9 °F - 28.0 °F 23% 29.64 in - SW 17.3 mph - N/A   Unknown
4:53 PM 66.9 °F - 24.1 °F 20% 29.61 in - WNW 16.1 mph 27.6 mph N/A   Unknown
5:53 PM 66.0 °F - 21.9 °F 19% 29.61 in - WNW 19.6 mph 26.5 mph N/A   Unknown
6:53 PM 62.1 °F - 23.0 °F 22% 29.61 in - NW 9.2 mph - N/A   Unknown
7:53 PM 61.0 °F - 25.0 °F 25% 29.60 in - West 12.7 mph 23.0 mph N/A   Unknown
8:53 PM 57.9 °F - 25.0 °F 28% 29.59 in - WSW 11.5 mph - N/A   Unknown
9:31 PM 55.0 °F - 25.0 °F 31% 29.80 in - NNW 23.0 mph 39.1 mph N/A   Unknown
9:53 PM 51.1 °F - 27.0 °F 39% 29.63 in - NNW 11.5 mph 21.9 mph N/A   Unknown
10:53 PM 48.9 °F - 21.9 °F 35% 29.63 in - NNW 3.5 mph - N/A   Unknown
11:53 PM 48.9 °F - 15.1 °F 26% 29.69 in - NNW 11.5 mph - N/A   Unknown